Date,TemperatureHighF,TemperatureAvgF,TemperatureLowF,DewpointHighF,DewpointAvgF,DewpointLowF,HumidityHigh,HumidityAvg,HumidityLow,PressureMaxIn,PressureMinIn,WindSpeedMaxMPH,WindSpeedAvgMPH,GustSpeedMaxMPH,PrecipitationSumIn
2013-1-1,38.2,37.6,36.9,31.4,30.5,29.8,78,75,72,0.00,40.00,0,-999,0,0.00
2013-1-4,35.5,34.2,31.4,28.6,26.2,23.8,76,72,69,0.00,40.00,0,-999,0,0.00
2013-1-5,45.3,32.6,20.1,30.1,23.8,17.5,89,71,48,0.00,40.00,0,-999,0,0.00
2013-1-6,43.2,31.8,21.6,37.4,29.0,18.8,95,89,77,0.00,40.00,0,-999,0,0.00
2013-1-7,41.7,30.8,23.2,34.3,27.2,21.8,95,86,69,0.00,40.00,0,-999,0,0.00
2013-1-8,46.4,37.7,28.4,38.2,33.8,27.0,96,86,72,0.00,40.00,0,-999,0,0.00
2013-1-9,47.5,37.5,23.3,43.0,34.6,22.0,96,89,73,0.00,40.00,0,-999,0,0.00
2013-1-10,49.0,39.8,24.9,36.6,27.7,21.2,85,63,45,0.00,40.00,0,-999,0,0.00
2013-1-11,43.9,33.8,21.3,38.4,29.7,18.8,95,85,71,0.00,40.00,0,-999,0,0.00
2013-1-12,47.4,43.2,39.5,45.5,41.9,38.3,97,94,89,0.00,40.00,0,-999,0,0.00
2013-1-13,53.7,47.2,43.2,53.2,46.8,42.6,99,98,96,0.00,40.00,0,-999,0,0.00
2013-1-14,61.0,50.3,40.6,60.5,48.9,35.1,99,95,64,0.00,40.00,0,-999,0,0.00
2013-1-15,43.0,39.0,37.1,38.1,35.9,33.7,96,88,81,0.00,40.00,0,-999,0,0.00
2013-1-16,40.9,37.6,34.7,40.2,36.7,33.8,97,96,87,0.00,40.00,0,-999,0,0.00
2013-1-17,46.5,37.9,32.3,36.7,32.3,24.4,96,80,63,0.00,40.00,0,-999,0,0.00
2013-1-18,32.3,24.1,14.4,24.9,9.9,2.5,90,56,36,0.00,40.00,0,-999,0,0.00
2013-1-19,47.2,40.9,13.8,43.8,35.2,8.4,90,80,69,0.00,40.00,0,-999,0,0.00
2013-1-20,50.7,44.5,29.8,44.8,36.3,14.8,92,73,47,0.00,40.00,0,-999,0,0.00
2013-1-21,32.2,27.5,23.2,25.7,16.5,9.4,93,65,44,0.00,40.00,0,-999,0,0.00
2013-1-22,29.2,22.5,13.7,25.8,12.2,1.5,93,66,41,0.00,40.00,0,-999,0,0.00
2013-1-23,19.8,13.0,7.8,3.7,-1.4,-5.9,67,52,42,0.00,40.00,0,-999,0,0.00
2013-1-24,21.5,12.7,4.5,1.5,-3.6,-7.1,58,47,36,0.00,40.00,0,-999,0,0.00
2013-1-25,27.9,18.0,8.7,14.8,1.4,-5.3,83,48,34,0.00,40.00,0,-999,0,0.00
2013-1-26,29.0,19.8,13.1,15.9,9.1,-1.2,87,64,42,0.00,40.00,0,-999,0,0.00
2013-1-27,33.1,21.4,13.6,10.9,5.9,1.5,67,51,36,0.00,40.00,0,-999,0,0.00
2013-1-28,33.3,23.9,8.4,32.2,16.3,2.2,95,74,36,0.00,40.00,0,-999,0,0.00
2013-1-29,37.7,34.6,32.5,37.0,33.6,31.6,97,96,93,0.00,40.00,0,-999,0,0.00
2013-1-30,63.2,52.7,37.5,59.7,50.9,36.7,96,93,85,0.00,40.00,0,-999,0,0.00
2013-1-31,61.9,49.2,32.5,59.0,40.7,17.5,98,73,48,0.00,40.00,0,-999,0,0.00
2013-2-1,35.0,29.8,23.0,19.1,13.9,8.8,62,51,42,0.00,40.00,0,-999,0,0.00
2013-2-2,31.8,26.4,17.8,25.2,14.9,7.2,89,62,43,0.00,40.00,0,-999,0,0.00
2013-2-3,37.3,27.4,21.0,29.3,22.8,18.4,90,82,70,0.00,40.00,0,-999,0,0.00
2013-2-4,33.9,26.6,22.6,22.0,15.0,10.6,89,62,43,0.00,40.00,0,-999,0,0.00
2013-2-5,30.5,25.7,23.1,28.8,19.3,12.7,93,77,60,0.00,40.00,0,-999,0,0.00
2013-2-6,43.5,32.8,27.5,33.7,25.2,10.9,94,75,48,0.00,40.00,0,-999,0,0.00
2013-2-7,32.5,25.3,15.9,23.0,12.1,7.8,79,58,38,0.00,40.00,0,-999,0,0.00
2013-2-8,34.4,32.3,28.7,32.3,29.1,23.0,97,88,78,0.00,40.00,0,-999,0,0.00
2013-2-9,30.9,20.6,13.2,30.2,19.1,10.9,97,93,90,0.00,40.00,0,-999,0,0.00
2013-2-10,37.6,20.0,9.2,27.2,15.6,6.5,93,83,59,0.00,40.00,0,-999,0,0.00
2013-2-11,48.5,35.9,12.1,47.8,34.5,10.2,98,94,88,0.00,40.00,0,-999,0,0.00
2013-2-12,48.5,39.7,26.7,41.4,32.6,24.0,98,77,54,0.00,40.00,0,-999,0,0.00
2013-2-13,45.2,33.9,26.2,30.8,26.8,23.3,91,75,55,0.00,40.00,0,-999,0,0.00
2013-2-14,47.1,34.2,24.6,36.7,28.7,23.5,96,81,51,0.00,40.00,0,-999,0,0.00
2013-2-15,48.8,37.6,23.2,41.2,34.1,21.9,96,87,69,0.00,40.00,0,-999,0,0.00
2013-2-16,39.1,33.7,28.0,34.4,31.9,26.9,97,93,82,0.00,40.00,0,-999,0,0.00
2013-2-17,34.3,24.2,18.7,31.7,17.2,6.0,91,76,48,0.00,40.00,0,-999,0,0.00
2013-2-18,35.3,24.9,16.0,12.3,7.8,4.4,61,48,33,0.00,40.00,0,-999,0,0.00
2013-2-19,48.9,37.5,18.6,46.7,30.9,10.7,97,77,54,0.00,40.00,0,-999,0,0.00
2013-2-20,41.4,34.3,26.4,40.7,24.8,13.6,97,69,48,0.00,40.00,0,-999,0,0.00
2013-2-21,37.2,29.7,25.7,20.8,17.7,15.8,70,60,48,0.00,40.00,0,-999,0,0.00
2013-2-22,39.9,33.1,28.8,29.8,25.8,19.8,83,74,66,0.00,40.00,0,-999,0,0.00
2013-2-23,40.0,36.0,31.5,37.7,32.0,27.6,95,85,75,0.00,40.00,0,-999,0,0.00
2013-2-24,42.2,38.0,32.6,41.5,37.1,31.7,97,96,94,0.00,40.00,0,-999,0,0.00
2013-2-25,43.4,34.0,28.4,36.1,30.7,26.9,96,88,66,0.00,40.00,0,-999,0,0.00
2013-2-26,48.0,35.7,22.6,36.4,29.6,21.3,95,79,54,0.00,40.00,0,-999,0,0.00
2013-2-27,45.2,43.0,38.8,44.6,41.8,35.3,98,95,84,0.00,40.00,0,-999,0,0.00
2013-2-28,49.3,40.1,35.4,44.6,38.5,34.5,98,94,80,0.00,40.00,0,-999,0,0.00
2013-3-1,41.7,38.0,34.8,37.1,34.6,32.1,97,87,76,0.00,40.00,0,-999,0,0.00
2013-3-2,46.2,38.0,34.5,34.2,31.5,29.1,89,77,60,0.00,40.00,0,-999,0,0.00
2013-3-3,42.2,36.3,33.0,33.1,30.5,28.1,91,79,67,0.00,40.00,0,-999,0,0.00
2013-3-4,43.0,36.1,29.9,30.7,27.4,24.4,91,71,55,0.00,40.00,0,-999,0,0.00
2013-3-5,45.3,36.3,28.4,36.9,30.5,25.4,95,79,67,0.00,40.00,0,-999,0,0.00
2013-3-6,44.6,38.4,32.9,39.0,35.8,31.8,96,90,78,0.00,40.00,0,-999,0,0.00
2013-3-7,37.5,35.3,33.6,35.6,34.1,32.6,97,95,90,0.00,40.00,0,-999,0,0.00
2013-3-8,40.9,35.2,32.8,35.7,33.2,32.0,97,92,74,0.00,40.00,0,-999,0,0.00
2013-3-9,39.8,36.7,32.5,34.4,32.4,30.6,93,84,76,0.00,40.00,0,-999,0,0.00
2013-3-10,45.8,37.6,29.6,37.6,33.0,27.3,93,83,71,0.00,40.00,0,-999,0,0.00
2013-3-11,51.9,41.8,32.5,45.0,38.6,30.5,94,88,75,0.00,40.00,0,-999,0,0.00
2013-3-12,55.0,49.8,43.0,54.4,48.3,41.8,98,94,88,0.00,40.00,0,-999,0,0.00
2013-3-13,55.7,45.4,27.4,53.5,37.5,23.3,98,75,47,0.00,40.00,0,-999,0,0.00
2013-3-14,41.0,31.5,24.6,27.5,20.2,9.1,88,64,45,0.00,40.00,0,-999,0,0.00
2013-3-15,40.5,31.7,22.2,29.8,18.8,9.9,78,59,38,0.00,40.00,0,-999,0,0.00
2013-3-16,41.7,34.7,25.1,29.5,22.9,16.6,87,63,38,0.00,40.00,0,-999,0,0.00
2013-3-17,42.8,31.5,19.9,27.8,18.2,10.1,90,60,34,0.00,40.00,0,-999,0,0.00
2013-3-18,40.9,30.4,19.3,26.1,17.5,5.9,78,58,48,0.00,40.00,0,-999,0,0.00
2013-3-19,43.7,36.6,30.5,42.9,35.1,26.1,97,94,78,0.00,40.00,0,-999,0,0.00
2013-3-20,44.4,34.1,26.0,30.4,25.1,21.9,92,71,47,0.00,40.00,0,-999,0,0.00
2013-3-21,40.8,32.4,25.6,29.8,27.7,23.5,95,83,61,0.00,40.00,0,-999,0,0.00
2013-3-22,43.5,34.5,27.4,32.1,26.4,22.5,96,73,49,0.00,40.00,0,-999,0,0.00
2013-3-23,46.6,37.4,29.6,28.9,24.1,21.9,78,59,41,0.00,40.00,0,-999,0,0.00
2013-3-24,50.4,37.6,27.5,32.9,25.9,22.0,86,63,45,0.00,40.00,0,-999,0,0.00
2013-3-25,48.3,38.0,27.4,38.1,31.5,24.0,90,78,56,0.00,40.00,0,-999,0,0.00
2013-3-26,51.8,39.4,27.9,34.4,30.8,24.9,93,73,45,0.00,40.00,0,-999,0,0.00
2013-3-27,54.8,40.1,22.7,36.4,29.0,19.9,89,67,39,0.00,40.00,0,-999,0,0.00
2013-3-28,50.5,41.5,37.1,40.3,35.2,31.4,94,79,51,0.00,40.00,0,-999,0,0.00
2013-3-29,61.0,42.7,27.5,42.5,36.0,26.0,94,78,48,0.00,40.00,0,-999,0,0.00
2013-3-30,56.8,43.4,28.8,39.3,34.5,25.9,92,73,48,0.00,40.00,0,-999,0,0.00
2013-3-31,57.5,43.2,25.1,44.3,34.9,22.9,94,74,43,0.00,40.00,0,-999,0,0.00
2013-4-1,54.8,46.8,36.6,48.1,41.8,17.8,97,83,45,0.00,40.00,0,-999,0,0.00
2013-4-2,44.9,36.9,30.8,26.8,18.7,13.7,59,47,34,0.00,40.00,0,-999,0,0.00
2013-4-3,49.4,38.7,31.6,21.8,18.6,16.9,57,44,31,0.00,40.00,0,-999,0,0.00
2013-4-4,47.2,38.5,28.0,35.8,25.8,17.4,84,61,39,0.00,40.00,0,-999,0,0.00
2013-4-5,58.8,43.9,32.2,46.4,38.7,30.4,93,82,62,0.00,40.00,0,-999,0,0.00
2013-4-6,49.2,39.0,27.9,31.7,21.8,13.0,83,53,25,0.00,40.00,0,-999,0,0.00
2013-4-7,53.4,42.0,24.2,45.6,33.4,21.2,93,73,35,0.00,40.00,0,-999,0,0.00
2013-4-8,66.0,52.8,45.7,50.7,45.1,39.7,93,76,52,0.00,40.00,0,-999,0,0.00
2013-4-9,71.9,52.8,43.8,57.3,47.6,40.4,96,83,58,0.00,40.00,0,-999,0,0.00
2013-4-10,64.0,50.9,44.7,52.4,46.2,42.9,95,84,62,0.00,40.00,0,-999,0,0.00
2013-4-11,53.3,47.1,44.2,46.4,42.4,35.6,97,84,62,0.00,40.00,0,-999,0,0.00
2013-4-12,45.1,42.0,37.6,41.2,37.2,32.3,96,83,65,0.00,40.00,0,-999,0,0.00
2013-4-13,52.1,42.5,38.8,45.1,39.6,37.6,96,89,73,0.00,40.00,0,-999,0,0.00
2013-4-14,58.5,46.0,31.5,46.5,37.6,26.6,97,74,46,0.00,40.00,0,-999,0,0.00
2013-4-15,58.0,42.9,28.7,43.0,35.2,25.3,93,75,51,0.00,40.00,0,-999,0,0.00
2013-4-16,62.2,49.0,30.5,48.5,41.7,28.7,96,77,46,0.00,40.00,0,-999,0,0.00
2013-4-17,67.7,53.6,35.6,53.9,44.4,31.8,96,74,37,0.00,40.00,0,-999,0,0.00
2013-4-18,61.6,48.9,31.5,49.9,37.8,29.4,93,68,42,0.00,40.00,0,-999,0,0.00
2013-4-19,72.7,64.1,53.0,66.1,61.4,49.9,95,91,78,0.00,40.00,0,-999,0,0.00
2013-4-20,66.7,51.9,39.0,65.1,49.0,36.2,98,90,68,0.00,40.00,0,-999,0,0.00
2013-4-21,51.5,41.7,29.6,36.6,28.9,24.9,84,61,46,0.00,40.00,0,-999,0,0.00
2013-4-22,54.3,41.6,27.5,40.0,33.0,24.6,90,72,47,0.00,40.00,0,-999,0,0.00
2013-4-23,45.8,43.4,41.1,44.2,41.9,35.4,96,94,79,0.00,40.00,0,-999,0,0.00
2013-4-24,58.2,48.7,43.2,51.7,46.0,42.2,97,90,73,0.00,40.00,0,-999,0,0.00
2013-4-25,66.1,52.6,35.6,55.0,45.2,32.9,97,77,43,0.00,40.00,0,-999,0,0.00
2013-4-26,65.3,50.3,32.6,48.7,40.7,30.7,94,72,44,0.00,40.00,0,-999,0,0.00
2013-4-27,41.9,40.2,39.3,40.2,38.4,37.5,93,93,92,0.00,40.00,0,-999,0,0.00
2013-4-28,66.6,51.0,33.0,51.4,42.8,31.0,94,75,44,0.00,40.00,0,-999,0,0.00
2013-4-29,66.1,51.9,38.2,49.8,40.1,33.4,95,68,33,0.00,40.00,0,-999,0,0.00
2013-4-30,69.9,50.7,32.0,43.8,34.1,28.8,92,58,30,0.00,40.00,0,-999,0,0.00
2013-5-1,68.4,51.5,33.5,51.0,42.8,28.5,94,74,43,0.00,40.00,0,-999,0,0.00
2013-5-2,75.8,52.7,35.7,50.6,42.3,33.9,93,72,32,0.00,40.00,0,-999,0,0.00
2013-5-3,54.6,45.1,34.0,46.9,41.0,32.2,95,86,74,0.00,40.00,0,-999,0,0.00
2013-5-4,56.9,46.5,34.1,45.2,40.4,32.6,96,80,60,0.00,40.00,0,-999,0,0.00
2013-5-5,60.3,48.1,34.8,48.4,41.9,33.2,95,80,59,0.00,40.00,0,-999,0,0.00
2013-5-6,74.0,53.4,42.9,57.8,48.3,41.9,97,84,55,0.00,40.00,0,-999,0,0.00
2013-5-7,76.0,61.0,45.3,64.1,56.0,44.7,98,84,64,0.00,40.00,0,-999,0,0.00
2013-5-8,73.9,63.7,56.8,66.2,60.5,55.4,98,89,74,0.00,40.00,0,-999,0,0.00
2013-5-9,72.2,61.5,53.5,66.1,59.6,52.9,98,93,76,0.00,40.00,0,-999,0,0.00
2013-5-10,76.6,62.7,54.1,64.7,57.9,53.7,99,85,54,0.00,40.00,0,-999,0,0.00
2013-5-11,65.4,61.4,57.1,64.0,59.6,55.3,98,93,84,0.00,40.00,0,-999,0,0.00
2013-5-12,65.1,58.8,44.9,61.9,55.3,39.1,99,88,57,0.00,40.00,0,-999,0,0.00
2013-5-13,57.8,51.3,39.5,43.1,38.9,33.1,87,63,49,0.00,40.00,0,-999,0,0.00
2013-5-14,60.2,50.0,38.8,43.9,38.3,33.5,86,64,45,0.00,40.00,0,-999,0,0.00
2013-5-15,62.7,52.1,33.8,56.8,45.6,31.7,93,79,51,0.00,40.00,0,-999,0,0.00
2013-5-16,73.7,60.7,49.9,58.9,53.7,48.5,98,78,52,0.00,40.00,0,-999,0,0.00
2013-5-17,68.9,56.8,43.0,50.7,46.6,41.0,93,70,46,0.00,40.00,0,-999,0,0.00
2013-5-18,72.9,55.7,39.2,56.6,49.5,37.7,95,80,47,0.00,40.00,0,-999,0,0.00
2013-5-19,69.7,58.6,45.9,55.9,52.2,45.1,97,80,56,0.00,40.00,0,-999,0,0.00
2013-5-20,71.6,61.5,56.7,66.5,59.9,55.8,98,94,82,0.00,40.00,0,-999,0,0.00
2013-5-21,76.6,62.5,53.9,70.9,60.6,53.2,99,93,79,0.00,40.00,0,-999,0,0.00
2013-5-22,68.4,59.7,52.2,64.8,58.2,51.4,98,94,83,0.00,40.00,0,-999,0,0.00
2013-5-23,70.9,64.2,60.2,68.3,63.3,60.1,99,97,90,0.00,40.00,0,-999,0,0.00
2013-5-24,66.7,62.3,53.5,66.4,62.0,52.8,99,98,96,0.00,40.00,0,-999,0,0.00
2013-5-25,54.8,50.7,43.0,53.6,49.6,41.3,98,95,89,0.00,40.00,0,-999,0,0.00
2013-5-26,62.2,50.3,41.6,48.1,42.4,39.1,93,75,53,0.00,40.00,0,-999,0,0.00
2013-5-27,73.4,57.3,43.2,54.2,46.9,39.7,94,70,32,0.00,40.00,0,-999,0,0.00
2013-5-28,74.3,59.2,41.1,59.1,51.1,39.9,96,77,49,0.00,40.00,0,-999,0,0.00
2013-5-29,68.8,60.5,57.6,64.8,59.3,56.8,98,95,85,0.00,40.00,0,-999,0,0.00
2013-5-30,80.8,67.9,59.2,73.4,64.5,58.9,98,89,75,0.00,40.00,0,-999,0,0.00
2013-5-31,86.4,71.7,58.5,73.8,65.8,57.9,98,82,59,0.00,40.00,0,-999,0,0.00
2013-6-1,77.0,67.5,61.7,69.6,64.2,60.5,96,89,76,0.00,40.00,0,-999,0,0.00
2013-6-2,74.7,66.8,63.4,68.7,64.6,62.2,97,92,80,0.00,40.00,0,-999,0,0.00
2013-6-3,65.1,63.9,62.5,65.0,63.7,62.5,99,99,97,0.00,40.00,0,-999,0,0.00
2013-6-4,74.7,63.3,51.6,63.4,52.1,47.4,99,69,45,0.00,40.00,0,-999,0,0.00
2013-6-5,75.4,60.4,43.6,56.9,50.7,42.3,95,72,46,0.00,40.00,0,-999,0,0.00
2013-6-6,75.2,62.3,49.1,62.7,54.9,48.1,97,78,50,0.00,40.00,0,-999,0,0.00
2013-6-7,70.7,60.1,57.5,70.2,58.7,54.0,99,95,82,0.00,40.00,0,-999,0,0.00
2013-6-8,72.9,66.3,59.7,70.9,64.4,59.1,99,93,78,0.00,40.00,0,-999,0,0.00
2013-6-9,78.9,67.2,55.0,66.4,61.7,54.7,99,83,56,0.00,40.00,0,-999,0,0.00
2013-6-10,75.6,63.7,54.3,66.2,60.4,53.5,98,89,68,0.00,40.00,0,-999,0,0.00
2013-6-11,73.8,64.6,56.2,70.6,63.8,55.7,99,97,88,0.00,40.00,0,-999,0,0.00
2013-6-12,73.4,63.9,56.2,62.5,58.5,55.0,98,83,60,0.00,40.00,0,-999,0,0.00
2013-6-13,70.0,58.6,49.2,63.5,56.0,48.5,98,91,67,0.00,40.00,0,-999,0,0.00
2013-6-14,69.6,58.2,53.5,58.6,54.3,52.7,97,87,63,0.00,40.00,0,-999,0,0.00
2013-6-15,81.6,66.7,51.1,62.2,56.2,49.2,98,72,37,0.00,40.00,0,-999,0,0.00
2013-6-16,76.3,66.6,56.2,65.0,61.3,55.6,98,84,54,0.00,40.00,0,-999,0,0.00
2013-6-17,81.6,69.4,58.3,71.0,65.2,57.8,98,87,67,0.00,40.00,0,-999,0,0.00
2013-6-18,83.5,67.6,58.4,71.5,63.1,57.9,98,86,62,0.00,40.00,0,-999,0,0.00
2013-6-19,75.5,65.6,56.5,61.7,56.7,52.8,96,75,46,0.00,40.00,0,-999,0,0.00
2013-6-20,76.4,65.0,52.3,66.5,58.7,51.6,98,81,56,0.00,40.00,0,-999,0,0.00
2013-6-21,75.0,67.4,55.1,64.8,60.0,53.3,94,77,62,0.00,40.00,0,-999,0,0.00
2013-6-22,78.9,69.3,63.6,67.4,63.7,60.5,96,83,60,0.00,40.00,0,-999,0,0.00
2013-6-23,78.1,71.0,65.4,71.3,68.0,64.5,99,90,75,0.00,40.00,0,-999,0,0.00
2013-6-24,83.8,74.6,67.7,77.3,71.7,66.2,99,91,78,0.00,40.00,0,-999,0,0.00
2013-6-25,87.5,75.1,67.0,76.5,70.8,66.2,97,87,66,0.00,40.00,0,-999,0,0.00
2013-6-26,87.4,76.6,69.0,78.1,72.7,68.4,98,88,71,0.00,40.00,0,-999,0,0.00
2013-6-27,83.6,70.6,66.7,76.8,68.9,66.3,99,94,77,0.00,40.00,0,-999,0,0.00
2013-6-28,74.6,72.2,69.0,73.5,71.7,68.8,99,98,95,0.00,40.00,0,-999,0,0.00
2013-6-29,78.0,72.2,68.4,74.2,71.3,68.4,100,97,86,0.00,40.00,0,-999,0,0.00
2013-6-30,76.1,72.0,70.3,73.3,71.1,69.8,99,96,88,0.00,40.00,0,-999,0,0.00
2013-7-1,77.7,73.4,70.8,75.9,72.7,70.8,100,97,93,0.00,40.00,0,-999,0,0.00
2013-7-2,80.0,74.3,71.7,77.1,73.2,71.3,99,96,90,0.00,40.00,0,-999,0,0.00
2013-7-3,80.9,74.2,71.4,77.3,73.2,71.3,100,96,87,0.00,40.00,0,-999,0,0.00
2013-7-4,83.6,75.9,71.7,79.0,74.5,71.8,100,95,83,0.00,40.00,0,-999,0,0.00
2013-7-5,86.0,77.3,71.9,80.2,74.9,71.7,99,92,80,0.00,40.00,0,-999,0,0.00
2013-7-6,88.1,79.3,72.6,81.3,76.2,72.2,98,90,78,0.00,40.00,0,-999,0,0.00
2013-7-7,90.6,79.0,71.4,82.1,75.8,71.2,99,90,70,0.00,40.00,0,-999,0,0.00
2013-7-8,86.5,77.7,71.2,79.6,74.5,70.4,98,90,78,0.00,40.00,0,-999,0,0.00
2013-7-9,77.1,72.1,69.2,73.1,70.6,68.9,99,95,86,0.00,40.00,0,-999,0,0.00
2013-7-10,84.1,76.7,71.2,78.5,75.4,70.6,99,95,81,0.00,40.00,0,-999,0,0.00
2013-7-11,78.3,74.9,71.5,76.3,74.2,70.6,99,97,91,0.00,40.00,0,-999,0,0.00
2013-7-12,73.7,70.4,67.6,73.3,68.7,65.5,100,94,83,0.00,40.00,0,-999,0,0.00
2013-7-13,86.8,73.3,67.7,81.2,71.9,67.4,99,95,79,0.00,40.00,0,-999,0,0.00
2013-7-14,87.0,78.9,72.8,82.2,76.8,72.8,100,93,81,0.00,40.00,0,-999,0,0.00
2013-7-15,95.4,82.3,71.9,83.6,76.9,71.8,99,84,55,0.00,40.00,0,-999,0,0.00
2013-7-16,93.3,81.7,71.1,77.1,73.6,69.5,99,78,56,0.00,40.00,0,-999,0,0.00
2013-7-17,91.9,80.5,69.4,80.0,73.7,68.3,96,81,55,0.00,40.00,0,-999,0,0.00
2013-7-18,94.0,83.2,76.6,81.1,77.0,74.9,96,82,62,0.00,40.00,0,-999,0,0.00
2013-7-19,88.3,81.1,76.6,82.3,78.5,75.5,98,91,80,0.00,40.00,0,-999,0,0.00
2013-7-20,85.4,79.3,72.2,80.1,76.7,70.8,96,91,81,0.00,40.00,0,-999,0,0.00
2013-7-21,87.2,76.6,70.0,78.2,72.8,69.1,98,88,66,0.00,40.00,0,-999,0,0.00
2013-7-22,86.5,75.8,68.4,77.6,71.7,67.5,97,87,64,0.00,40.00,0,-999,0,0.00
2013-7-23,84.2,78.2,72.9,80.2,76.3,72.4,99,93,84,0.00,40.00,0,-999,0,0.00
2013-8-8,80.6,72.8,62.5,73.7,68.6,56.9,93,86,76,0.00,40.00,0,-999,0,0.00
2013-8-9,76.9,74.6,71.7,75.1,73.2,71.2,99,95,89,0.00,40.00,0,-999,0,0.00
2013-8-10,86.4,74.5,59.2,74.1,68.8,57.7,99,83,53,0.00,40.00,0,-999,0,0.00
2013-8-11,80.6,68.4,53.5,65.0,60.0,52.6,97,76,49,0.00,40.00,0,-999,0,0.00
2013-8-12,80.4,69.7,60.3,74.2,66.6,59.3,98,90,74,0.00,40.00,0,-999,0,0.00
2013-8-13,74.3,68.3,61.9,72.1,67.2,61.6,99,96,88,0.00,40.00,0,-999,0,0.00
2013-8-14,77.9,69.2,60.1,67.0,59.9,54.6,99,73,53,0.00,40.00,0,-999,0,0.00
2013-8-15,78.9,66.7,52.0,60.9,56.8,50.5,96,72,44,0.00,40.00,0,-999,0,0.00
2013-8-16,81.1,68.6,53.8,65.3,60.4,52.8,96,77,45,0.00,40.00,0,-999,0,0.00
2013-8-17,82.2,68.9,55.7,68.0,62.3,55.1,98,81,57,0.00,40.00,0,-999,0,0.00
2013-8-18,79.9,67.5,57.7,69.5,62.7,56.6,97,85,58,0.00,40.00,0,-999,0,0.00
2013-8-19,84.1,69.6,55.4,72.4,64.7,54.9,98,85,65,0.00,40.00,0,-999,0,0.00
2013-8-20,87.3,73.9,62.7,75.1,68.1,62.1,98,83,55,0.00,40.00,0,-999,0,0.00
2013-8-21,88.6,74.0,61.1,74.8,68.3,60.7,99,83,59,0.00,40.00,0,-999,0,0.00
2013-8-22,80.7,73.5,70.0,76.2,71.8,68.6,98,94,84,0.00,40.00,0,-999,0,0.00
2013-8-23,78.1,73.0,69.4,70.8,67.6,61.2,98,84,60,0.00,40.00,0,-999,0,0.00
2013-8-24,75.5,64.4,48.2,62.7,55.2,45.4,96,74,42,0.00,40.00,0,-999,0,0.00
2013-8-25,85.4,67.6,47.0,65.2,57.5,44.5,94,72,41,0.00,40.00,0,-999,0,0.00
2013-8-26,77.4,71.6,69.1,69.9,67.3,63.4,96,86,75,0.00,40.00,0,-999,0,0.00
2013-8-27,76.8,71.0,67.8,73.1,70.1,67.5,99,96,87,0.00,40.00,0,-999,0,0.00
2013-8-28,82.8,71.5,65.9,74.3,69.0,65.5,99,92,72,0.00,40.00,0,-999,0,0.00
2013-8-29,68.8,65.4,56.2,67.0,64.1,55.5,98,95,90,0.00,40.00,0,-999,0,0.00
2013-8-30,75.4,67.2,55.5,71.1,65.1,54.9,98,93,84,0.00,40.00,0,-999,0,0.00
2013-8-31,74.8,72.1,70.3,72.5,71.0,69.6,98,96,92,0.00,40.00,0,-999,0,0.00
2013-9-1,76.6,73.2,70.9,75.1,72.6,70.6,99,97,94,0.00,40.00,0,-999,0,0.00
2013-9-2,83.0,74.9,72.2,79.0,74.1,72.2,100,97,86,0.00,40.00,0,-999,0,0.00
2013-9-3,82.0,72.2,65.4,78.1,71.5,65.4,100,97,83,0.00,40.00,0,-999,0,0.00
2013-9-4,79.4,65.6,59.1,69.4,62.8,58.9,99,91,66,0.00,40.00,0,-999,0,0.00
2013-9-5,72.8,62.4,48.0,69.6,60.0,47.3,99,91,80,0.00,40.00,0,-999,0,0.00
2013-9-6,72.4,56.4,44.5,58.2,50.9,43.9,98,83,57,0.00,40.00,0,-999,0,0.00
2013-9-7,74.5,64.4,46.8,62.1,57.1,45.6,97,78,54,0.00,40.00,0,-999,0,0.00
2013-9-8,80.7,68.3,48.0,69.6,59.7,44.1,93,74,50,0.00,40.00,0,-999,0,0.00
2013-9-9,70.9,57.6,42.3,57.4,50.2,40.7,94,78,50,0.00,40.00,0,-999,0,0.00
2013-9-10,74.2,67.4,56.3,68.9,63.5,54.2,95,87,78,0.00,40.00,0,-999,0,0.00
2013-9-11,84.4,74.0,69.6,78.1,71.7,68.9,98,92,79,0.00,40.00,0,-999,0,0.00
2013-9-12,78.1,73.7,70.8,74.2,71.6,70.1,98,93,87,0.00,40.00,0,-999,0,0.00
2013-9-13,80.6,71.2,62.6,74.6,69.1,60.6,99,93,78,0.00,40.00,0,-999,0,0.00
2013-9-14,75.9,64.4,51.4,64.5,58.6,50.3,96,82,61,0.00,40.00,0,-999,0,0.00
2013-9-15,72.4,59.6,45.3,61.4,54.0,44.6,97,82,61,0.00,40.00,0,-999,0,0.00
2013-9-16,69.5,61.4,53.8,61.2,57.1,46.4,93,86,69,0.00,40.00,0,-999,0,0.00
2013-9-17,61.0,52.8,39.5,47.8,43.8,37.6,93,72,55,0.00,40.00,0,-999,0,0.00
2013-9-18,73.8,56.6,37.7,56.3,48.3,36.2,95,76,45,0.00,40.00,0,-999,0,0.00
2013-9-19,67.9,55.5,48.6,58.6,53.0,47.9,98,91,69,0.00,40.00,0,-999,0,0.00
2013-9-22,63.7,57.4,50.0,55.7,52.2,48.2,93,82,74,0.00,40.00,0,-999,0,0.00
2013-9-23,67.0,54.3,43.7,52.7,47.3,41.3,94,78,54,0.00,40.00,0,-999,0,0.00
2013-9-24,68.8,52.6,38.3,54.3,46.2,37.1,96,80,54,0.00,40.00,0,-999,0,0.00
2013-9-25,68.1,54.6,40.6,55.7,48.6,39.5,97,81,57,0.00,40.00,0,-999,0,0.00
2013-9-26,65.4,56.6,48.8,55.0,51.4,47.0,94,83,66,0.00,40.00,0,-999,0,0.00
2013-9-27,65.6,57.1,44.1,58.1,53.1,43.1,96,87,72,0.00,40.00,0,-999,0,0.00
2013-9-28,74.2,56.5,41.8,62.5,52.3,40.8,98,86,64,0.00,40.00,0,-999,0,0.00
2013-9-29,71.2,55.7,37.9,59.4,51.4,37.0,97,86,65,0.00,40.00,0,-999,0,0.00
2013-9-30,69.3,59.4,45.0,60.8,55.8,44.0,97,88,71,0.00,40.00,0,-999,0,0.00
2013-10-1,79.3,59.1,44.1,61.0,52.7,43.2,98,81,51,0.00,40.00,0,-999,0,0.00
2013-10-2,80.1,64.8,52.1,69.0,60.3,51.6,98,86,66,0.00,40.00,0,-999,0,0.00
2013-10-3,82.5,63.2,49.7,63.1,55.6,49.1,98,79,35,0.00,40.00,0,-999,0,0.00
2013-10-4,74.9,58.0,47.5,65.1,55.4,46.4,97,91,64,0.00,40.00,0,-999,0,0.00
2013-10-5,70.0,61.9,54.6,65.3,59.9,54.0,98,93,79,0.00,40.00,0,-999,0,0.00
2013-10-6,63.8,60.4,57.3,62.9,58.9,56.4,98,95,87,0.00,40.00,0,-999,0,0.00
2013-10-7,78.7,70.7,63.8,74.1,69.1,62.9,99,94,84,0.00,40.00,0,-999,0,0.00
2013-10-8,68.9,58.4,44.6,66.7,51.6,43.4,98,79,53,0.00,40.00,0,-999,0,0.00
2013-10-9,64.8,54.8,44.8,52.6,47.7,43.5,95,77,62,0.00,40.00,0,-999,0,0.00
2013-10-10,68.3,59.0,46.1,61.1,55.7,43.9,94,88,76,0.00,40.00,0,-999,0,0.00
2013-10-11,69.1,60.1,51.2,63.2,57.4,49.5,95,91,78,0.00,40.00,0,-999,0,0.00
2013-10-12,66.6,58.8,52.4,61.1,55.5,50.1,95,88,81,0.00,40.00,0,-999,0,0.00
2013-10-13,65.1,53.4,36.2,53.1,47.6,34.8,94,81,63,0.00,40.00,0,-999,0,0.00
2013-10-14,70.3,49.2,33.2,56.1,44.2,32.0,96,84,57,0.00,40.00,0,-999,0,0.00
2013-10-15,72.4,55.0,40.2,58.5,49.3,38.8,97,82,55,0.00,40.00,0,-999,0,0.00
2013-10-16,62.2,57.5,49.9,60.8,56.3,48.9,98,95,92,0.00,40.00,0,-999,0,0.00
2013-10-17,71.7,62.4,56.9,66.1,60.7,56.6,98,94,81,0.00,40.00,0,-999,0,0.00
2013-10-18,73.5,62.3,44.5,64.1,55.6,42.5,98,80,51,0.00,40.00,0,-999,0,0.00
2013-10-19,68.5,54.1,38.0,55.0,46.9,36.6,95,78,50,0.00,40.00,0,-999,0,0.00
2013-10-20,66.7,55.0,36.2,58.6,45.3,32.8,96,72,41,0.00,40.00,0,-999,0,0.00
2013-10-21,67.8,51.3,33.4,51.0,43.0,31.2,94,75,47,0.00,40.00,0,-999,0,0.00
2013-10-22,68.7,57.3,44.0,58.0,52.3,42.1,97,84,65,0.00,40.00,0,-999,0,0.00
2013-10-23,54.6,45.6,35.2,45.2,41.0,33.7,96,84,63,0.00,40.00,0,-999,0,0.00
2013-10-24,56.0,47.3,39.2,42.4,36.4,31.2,94,68,44,0.00,40.00,0,-999,0,0.00
2013-10-25,57.3,42.7,28.5,40.2,33.1,25.4,89,70,48,0.00,40.00,0,-999,0,0.00
2013-10-26,59.3,45.9,27.1,46.6,37.2,25.1,93,73,55,0.00,40.00,0,-999,0,0.00
2013-10-27,61.6,50.6,33.2,45.2,38.3,29.1,86,63,47,0.00,40.00,0,-999,0,0.00
2013-10-28,61.0,45.7,28.7,46.3,36.0,26.2,93,70,49,0.00,40.00,0,-999,0,0.00
2013-10-29,57.7,42.0,30.2,42.3,34.7,26.4,93,76,51,0.00,40.00,0,-999,0,0.00
2013-10-30,56.8,44.8,34.7,51.3,42.1,32.9,95,90,80,0.00,40.00,0,-999,0,0.00
2013-10-31,67.2,56.3,36.3,64.2,53.3,35.2,97,89,78,0.00,40.00,0,-999,0,0.00
2013-11-1,71.4,64.9,59.6,67.5,62.5,58.1,95,91,84,0.00,40.00,0,-999,0,0.00
2013-11-2,67.2,57.2,52.0,58.3,53.8,49.6,97,88,64,0.00,40.00,0,-999,0,0.00
2013-11-3,53.7,44.2,35.5,50.0,40.4,27.0,96,86,67,0.00,40.00,0,-999,0,0.00
2013-11-4,45.7,36.9,28.7,32.1,29.0,25.6,90,73,56,0.00,40.00,0,-999,0,0.00
2013-11-5,56.0,39.7,30.0,39.7,33.2,27.2,90,78,52,0.00,40.00,0,-999,0,0.00
2013-11-6,61.7,50.4,34.3,54.9,46.1,32.3,96,85,62,0.00,40.00,0,-999,0,0.00
2013-11-7,62.0,55.8,41.6,61.4,54.7,37.6,99,95,83,0.00,40.00,0,-999,0,2.13
2013-11-8,54.8,42.9,36.3,41.3,32.6,25.9,87,67,52,0.00,40.00,0,-999,0,0.00
2013-11-9,47.2,39.8,33.9,35.1,29.5,26.9,84,67,48,0.00,40.00,0,-999,0,0.00
2013-11-10,59.8,49.7,39.2,49.7,43.0,34.6,85,77,67,0.00,40.00,0,-999,0,0.00
2013-11-11,54.7,48.0,39.7,47.0,36.6,31.3,78,65,46,0.00,40.00,0,-999,0,0.00
2013-11-12,53.5,37.9,29.0,46.3,32.5,21.2,94,81,63,0.00,40.00,0,-999,0,0.71
2013-11-13,40.8,31.9,25.4,24.9,20.0,17.3,76,62,44,0.00,40.00,0,-999,0,0.00
2013-11-14,52.0,43.9,33.2,37.5,31.0,21.9,76,60,39,0.00,40.00,0,-999,0,0.00
2013-11-15,57.8,48.6,33.9,50.3,42.5,30.7,96,80,61,0.00,40.00,0,-999,0,0.00
2013-11-16,60.8,47.2,33.9,47.6,41.3,32.7,96,81,45,0.00,40.00,0,-999,0,0.00
2013-11-17,62.4,51.0,33.8,59.7,48.7,32.6,98,92,67,0.00,40.00,0,-999,0,0.00
2013-11-18,65.0,57.7,42.1,64.5,54.8,39.3,99,90,72,0.00,40.00,0,-999,0,0.00
2013-11-19,47.3,41.2,28.3,39.3,28.3,20.6,86,60,45,0.00,40.00,0,-999,0,0.00
2013-11-20,42.1,30.9,20.6,26.5,20.5,16.6,84,66,43,0.00,40.00,0,-999,0,0.00
2013-11-21,50.8,34.9,19.5,37.5,28.1,16.3,89,77,50,0.00,40.00,0,-999,0,0.00
2013-11-22,49.2,43.5,37.7,48.2,41.4,34.1,96,92,86,0.00,40.00,0,-999,0,0.71
2013-11-23,49.2,43.5,31.5,48.1,31.7,19.7,97,64,40,0.00,40.00,0,-999,0,0.00
2013-11-24,31.4,26.4,22.1,20.1,9.1,1.5,64,48,32,0.00,40.00,0,-999,0,0.00
2013-11-25,40.9,27.2,18.2,34.8,9.8,3.3,85,49,27,0.00,40.00,0,-999,0,0.00
2013-11-26,48.4,42.0,36.8,47.4,34.4,28.5,96,75,57,0.00,40.00,0,-999,0,0.00
2013-11-27,63.7,57.1,49.9,63.1,56.5,48.9,99,97,95,0.00,40.00,0,-999,0,2.13
2013-11-28,39.2,34.1,26.7,36.7,22.9,14.8,90,64,48,0.00,40.00,0,-999,0,0.00
2013-11-29,39.0,29.0,17.9,21.1,17.1,11.5,76,61,45,0.00,40.00,0,-999,0,0.00
2013-11-30,40.9,27.3,15.0,25.9,18.6,10.4,87,70,47,0.00,40.00,0,-999,0,0.00
2013-12-1,49.1,44.8,36.4,48.0,41.5,30.8,97,88,80,0.00,40.00,0,-999,0,0.00
2013-12-2,45.4,41.1,39.4,44.8,39.9,37.6,98,95,90,0.00,40.00,0,-999,0,0.00
2013-12-3,50.1,38.6,27.9,42.0,36.1,26.8,96,91,68,0.00,40.00,0,-999,0,0.00
2013-12-4,48.5,36.7,27.1,36.4,31.7,26.0,96,83,60,0.00,40.00,0,-999,0,0.00
2013-12-5,57.9,48.3,28.6,57.2,46.1,27.2,98,92,79,0.00,40.00,0,-999,0,0.00
2013-12-6,56.6,50.0,38.7,56.4,49.3,37.7,99,97,91,0.00,40.00,0,-999,0,0.71
2013-12-7,43.9,35.0,25.7,37.7,31.7,22.6,97,88,67,0.00,40.00,0,-999,0,0.71
2013-12-8,33.8,28.9,18.5,26.0,22.2,16.4,93,76,63,0.00,40.00,0,-999,0,0.00
2013-12-9,46.4,37.6,31.7,45.8,36.1,26.1,97,94,75,0.00,40.00,0,-999,0,0.00